Location: Newark
(49.8348°N, 24.0280°E)
Time: 01:13:23
(UTC+00:00)

Courier 1B - Pass Details

Date: 27 January 2020
Orbit: 962 x 1209 km, 28.3° (Epoch: 27 February)

Event Time Altitude Azimuth Distance (km) Brightness Sun altitude
Exits shadow 03:37:35 10° 208° (SSW) 3,039 9.8 -23.5°
Maximum altitude 03:40:04 12° 189° (S) 2,926 9.9 -23.1°
Drops below altitude 10° 03:42:35 10° 169° (S) 3,087 10.2 -22.7°
Sets 03:47:48 0° 141° (SE) 4,085 11.4 -21.9°
